www.pogodaiklimat.ru

Погода и климат >> Архив погоды >> Германия >> Berlin


АРХИВ ПОГОДЫ в Berlin

Время (UTC), дата Ветер
(напр.,м/с)
 
Видим.   Явления Облачность Т
(С)
Тd
(С)
f
(%)
Тe
(С)
Тes
(С)
Комфортность P
(гПа)
Po
(гПа)
Тmin
(С)
Tmax
(С)
R
(мм)
R24
(мм)
S
(см)
07 11.08 В 2-3
{5}
н/о н/о +17.0 +15.8 93 +17 +17 прохладно 1012.7 1006.9
08 11.08 В 1-3
{4}
н/о н/о +17.9 +16.6 92 +19 +19 по сезону 1012.4 1006.6
09 11.08 Ю 5 н/о н/о +17.6 +15.5 87 +17 +17 прохладно 1013.3 1007.5
11 11.08 Ю 3-6
{8}
н/о н/о +17.2 +14.4 84 +17 +17 очень
холодно
1013.0 1007.2
10 11.08 Ю 4-6
{7}
н/о н/о +17.6 +15.1 85 +17 +17 очень
холодно
1013.9 1008.1
12 11.08 Ю 2-4
{8}
н/о н/о +18.8 +15.1 79 +20 +20 прохладно 1012.5 1006.8
13 11.08 Ю 3-7
{7}
н/о н/о +19.0 +14.6 76 +20 +20 холодно 1013.6 1007.9
14 11.08 ЮЗ 4-6
{8}
н/о н/о +20.0 +15.1 73 +22 +22 комфорт 1012.3 1006.6
15 11.08 ЮВ 3-4
{8}
н/о н/о +19.7 +14.8 73 +22 +22 комфорт 1011.9 1006.2
17 11.08 ЮЗ 2-4
{6}
н/о н/о +18.1 +16.1 88 +19 +19 холодно 1011.1 1005.4
16 11.08 Ю 2-5
{7}
н/о н/о +18.6 +15.5 82 +20 +20 прохладно 1012.5 1006.8
18 11.08 Ю 2 н/о н/о +17.7 +15.8 89 +18 +18 прохладно 1011.3 1005.5 +16.7 +20.5 0.8
19 11.08 ЮЗ 2-4
{4}
н/о н/о +17.6 +15.6 88 +18 +18 по сезону 1011.2 1005.4
20 11.08 Ю 2-3
{4}
н/о н/о +17.4 +15.6 89 +18 +18 по сезону 1011.4 1005.6
21 11.08 ЮЗ 2-4
{5}
н/о н/о +17.1 +15.4 90 +17 +17 прохладно 1011.3 1005.5
23 11.08 ЮЗ 3-6
{6}
н/о н/о +16.8 +14.8 88 +17 +17 тепло 1010.9 1005.1
22 11.08 Ю 2-3
{4}
н/о н/о +16.9 +15.5 91 +17 +17 по сезону 1011.1 1005.3
00 12.08 ЮЗ 5 н/о н/о +16.3 +13.3 82 +15 +15 по сезону 1010.7 1004.9
01 12.08 Ю 4-7
{8}
н/о н/о +15.7 +13.0 84 +15 +15 по сезону 1011.3 1005.5
02 12.08 ЮЗ 5-8
{10}
н/о н/о +14.8 +12.8 88 +13 +13 прохладно 1010.9 1005.1
03 12.08 ЮЗ 5-8
{10}
н/о н/о +14.5 +12.4 87 +13 +13 прохладно 1010.6 1004.8
05 12.08 ЮЗ 5-8
{8}
н/о н/о +13.9 +12.9 94 +12 +12 прохладно 1011.0 1005.2
04 12.08 ЮЗ 4-7
{8}
н/о н/о +14.3 +12.6 90 +13 +13 прохладно 1011.0 1005.2
06 12.08 З 5 н/о н/о +13.9 +12.8 93 +12 +12 прохладно 1011.4 1005.6 +13.9 +17.7 0.1
07 12.08 З 5-8
{9}
н/о н/о +13.8 +12.6 92 +12 +12 очень
холодно
1012.1 1006.3
08 12.08 З 6-11
{11}
н/о н/о +13.7 +12.2 91 +11 +11 очень
холодно
1012.9 1007.0
09 12.08 З 5 н/о н/о +13.6 +12.4 92 +12 +12 очень
холодно
1013.8 1007.9 1
11 12.08 З 4-8
{8}
н/о н/о +15.5 +13.1 86 +15 +15 очень
холодно
1014.3 1008.5
10 12.08 ЮЗ 5-8
{8}
н/о н/о +14.1 +12.7 91 +12 +12 очень
холодно
1014.2 1008.3
12 12.08 ЮЗ 5-8
{11}
н/о н/о +15.9 +12.4 80 +15 +15 очень
холодно
1014.5 1008.7 0.4
13 12.08 ЮЗ 4-7
{8}
н/о н/о +17.8 +12.7 72 +18 +18 холодно 1014.5 1008.7
14 12.08 З 5-8
{8}
н/о н/о +17.8 +11.5 67 +17 +17 холодно 1014.6 1008.8
15 12.08 ЮЗ 4-7
{9}
н/о н/о +17.9 +11.3 65 +18 +18 холодно 1014.5 1008.7
17 12.08 ЮЗ 4-6
{9}
н/о н/о +18.3 +11.2 63 +18 +18 холодно 1014.4 1008.6
16 12.08 ЮЗ 5-9
{9}
н/о н/о +18.7 +11.5 63 +19 +19 прохладно 1014.8 1009.0
18 12.08 Ю 3 н/о н/о +18.0 +11.7 67 +18 +18 прохладно 1014.2 1008.4 +13.5 +19.0
19 12.08 ЮЗ 4-5
{6}
н/о н/о +17.8 +12.2 70 +18 +18 по сезону 1014.6 1008.8
20 12.08 ЮЗ 4-7
{9}
н/о н/о +15.4 +13.7 90 +14 +14 холодно 1015.2 1009.4
21 12.08 ЮЗ 4-6
{9}
н/о н/о +15.1 +13.4 90 +14 +14 холодно 1015.2 1009.4 0.1
23 12.08 ЮЗ 3-5
{6}
н/о н/о +15.6 +13.4 87 +15 +15 по сезону 1015.7 1009.9
22 12.08 ЮЗ 3-6
{7}
н/о н/о +15.5 +13.6 88 +15 +15 по сезону 1015.5 1009.7
00 13.08 ЮЗ 3 н/о н/о +15.5 +13.6 88 +15 +15 по сезону 1015.5 1009.7
01 13.08 ЮЗ 2-3
{5}
н/о н/о +15.5 +13.5 88 +15 +15 по сезону 1015.3 1009.5
02 13.08 З 2-3
{4}
н/о н/о +15.2 +13.4 89 +15 +15 по сезону 1015.5 1009.7
03 13.08 ЮЗ 2-3
{5}
н/о н/о +14.7 +13.2 91 +14 +14 прохладно 1016.2 1010.3
05 13.08 ЮЗ 3-4
{4}
н/о н/о +15.3 +13.7 90 +15 +15 по сезону 1016.9 1011.1
04 13.08 ЮЗ 2-3
{3}
н/о н/о +14.7 +13.3 91 +14 +14 по сезону 1016.6 1010.7
06 13.08 З 2 н/о н/о +16.2 +14.2 88 +16 +16 по сезону 1017.3 1011.5 +14.4 +18.0 0.1
07 13.08 З 3-6
{6}
н/о н/о +17.3 +14.0 81 +17 +17 прохладно 1017.8 1012.0
08 13.08 З 4-6
{6}
н/о н/о +18.1 +13.3 74 +18 +18 по сезону 1018.2 1012.4
09 13.08 СЗ 5 н/о н/о +19.1 +12.6 66 +20 +20 по сезону 1018.5 1012.7
11 13.08 З 4-6
{7}
н/о н/о +20.2 +12.2 60 +22 +22 комфорт 1019.0 1013.2
10 13.08 З 4-7
{9}
н/о н/о +20.4 +12.1 59 +22 +22 комфорт 1018.7 1012.9
12 13.08 З 5-7
{9}
н/о н/о +20.8 +11.9 57 +23 +23 комфорт 1018.9 1013.1
13 13.08 З 4-6
{7}
н/о н/о +21.2 +12.2 56 +23 +23 комфорт 1019.0 1013.3
14 13.08 СЗ 6-8
{8}
н/о н/о +20.9 +12.5 59 +23 +23 комфорт 1019.2 1013.5
15 13.08 З 4-6
{8}
н/о н/о +21.3 +12.1 56 +23 +23 комфорт 1019.6 1013.9
17 13.08 З 3-4
{5}
н/о н/о +20.6 +12.0 58 +23 +23 комфорт 1020.1 1014.3
16 13.08 З 4-5
{6}
н/о н/о +20.7 +11.5 56 +23 +23 комфорт 1019.9 1014.1
18 13.08 З 3 н/о н/о +20.0 +11.8 59 +22 +22 комфорт 1020.5 1014.7 +16.2 +22.6
19 13.08 С 2-3
{7}
н/о н/о +17.9 +12.7 72 +18 +18 по сезону 1021.2 1015.4
20 13.08 штиль 0-1
{3}
н/о н/о +16.7 +12.3 75 +17 +17 прохладно 1021.7 1015.9
21 13.08 С 1-1
{7}
н/о н/о +16.3 +12.2 77 +17 +17 прохладно 1022.1 1016.2
23 13.08 штиль 0
{1}
н/о н/о +16.1 +12.0 77 +16 +16 по сезону 1022.7 1016.8
22 13.08 СВ 1-1
{2}
н/о н/о +16.8 +13.0 78 +18 +18 тепло 1022.3 1016.5
00 14.08 штиль 0 н/о н/о +15.0 +12.4 84 +15 +15 по сезону 1022.9 1017.0
01 14.08 С 1-1
{1}
н/о н/о +14.4 +12.4 88 +15 +15 по сезону 1023.0 1017.1
02 14.08 СВ 1-1
{1}
н/о н/о +13.9 +12.1 89 +14 +14 по сезону 1023.2 1017.3
03 14.08 СВ 2-2
{2}
н/о н/о +14.3 +12.2 87 +14 +14 по сезону 1023.3 1017.4
05 14.08 штиль 0-1
{1}
н/о н/о +14.7 +12.2 85 +14 +14 по сезону 1023.8 1017.9
04 14.08 СВ 1-1
{2}
н/о н/о +14.2 +12.2 88 +15 +15 по сезону 1023.5 1017.6
06 14.08 В 1 н/о н/о +16.7 +13.3 80 +18 +18 тепло 1024.0 1018.1 +13.9 +20.0
07 14.08 В 2-3
{3}
н/о н/о +18.2 +12.9 71 +19 +19 по сезону 1024.2 1018.4
08 14.08 ЮВ 2-4
{4}
н/о н/о +20.0 +12.7 63 +22 +22 комфорт 1024.4 1018.6
09 14.08 СВ 1 н/о н/о +20.7 +12.9 61 +24 +24 комфорт 1024.3 1018.5
11 14.08 В 3-5
{5}
н/о н/о +22.8 +12.3 52 +26 +26 жарко 1023.8 1018.1
10 14.08 СВ 1-2
{4}
н/о н/о +21.5 +12.1 55 +24 +24 комфорт 1024.2 1018.4
12 14.08 ЮВ 2-5
{6}
н/о н/о +23.2 +10.9 46 +25 +25 комфорт 1023.5 1017.8
13 14.08 В 2-4
{5}
н/о н/о +23.3 +11.9 49 +26 +26 жарко 1023.2 1017.5
14 14.08 В 3-5
{5}
н/о н/о +22.8 +11.3 48 +25 +25 комфорт 1022.8 1017.1
15 14.08 ЮВ 3-5
{5}
н/о н/о +23.1 +11.8 49 +26 +26 жарко 1022.4 1016.7
17 14.08 ЮВ 3-5
{7}
н/о н/о +23.1 +12.0 50 +26 +26 жарко 1021.9 1016.2
16 14.08 В 5-7
{7}
н/о н/о +23.6 +11.7 47 +25 +25 комфорт 1022.2 1016.5
18 14.08 В 4 н/о н/о +21.9 +12.3 54 +24 +24 комфорт 1022.0 1016.3 +16.7 +24.0
19 14.08 В 3-4
{6}
н/о н/о +20.6 +12.6 60 +23 +23 комфорт 1022.3 1016.5
20 14.08 В 2-3
{4}
н/о н/о +18.8 +12.7 68 +20 +20 тепло 1022.4 1016.6
21 14.08 В 3-3
{6}
н/о н/о +17.4 +12.8 74 +17 +17 прохладно 1022.6 1016.8
23 14.08 В 3-4
{4}
н/о н/о +16.7 +12.7 77 +16 +16 по сезону 1022.4 1016.6
22 14.08 В 3-4
{4}
н/о н/о +17.4 +12.9 75 +17 +17 по сезону 1022.4 1016.6
00 15.08 ЮВ 2 н/о н/о +16.4 +12.6 78 +17 +17 по сезону 1022.1 1016.2
01 15.08 ЮВ 3-4
{4}
н/о н/о +15.8 +12.3 80 +15 +15 по сезону 1021.8 1015.9
02 15.08 В 3-4
{4}
н/о н/о +15.4 +12.3 82 +15 +15 по сезону 1021.4 1015.5
03 15.08 В 3-5
{5}
н/о н/о +15.2 +12.1 82 +14 +14 по сезону 1021.1 1015.2
05 15.08 В 3-5
{5}
н/о н/о +15.3 +12.2 82 +15 +15 по сезону 1021.0 1015.1
04 15.08 ЮВ 3-4
{5}
н/о н/о +15.1 +12.0 82 +14 +14 по сезону 1021.0 1015.1
06 15.08 ЮВ 4 н/о н/о +16.7 +12.6 77 +16 +16 по сезону 1020.9 1015.1 +14.8 +22.0
07 15.08 В 4-6
{6}
н/о н/о +18.7 +13.7 73 +19 +19 по сезону 1020.6 1014.8
08 15.08 ЮВ 4-6
{6}
н/о н/о +20.8 +14.0 65 +24 +24 комфорт 1020.1 1014.3
09 15.08 ЮВ 4 н/о н/о +22.5 +14.0 59 +26 +26 жарко 1019.7 1014.0
11 15.08 ЮВ 5-9
{9}
н/о н/о +24.8 +13.5 49 +27 +27 жарко 1019.2 1013.5
10 15.08 ЮВ 5-7
{8}
н/о н/о +24.0 +14.5 55 +27 +27 жарко 1019.6 1013.9
12 15.08 ЮВ 5-7
{9}
н/о н/о +25.8 +14.3 49 +28 +28 жарко 1018.5 1012.9
13 15.08 ЮВ 4-7
{8}
н/о н/о +26.9 +14.6 47 +29 +29 жарко 1018.0 1012.4
14 15.08 ЮВ 5-8
{9}
н/о н/о +27.2 +13.2 42 +29 +29 жарко 1017.2 1011.6
15 15.08 ЮВ 5-8
{9}
н/о н/о +27.4 +12.7 40 +29 +29 жарко 1016.9 1011.3
17 15.08 ЮВ 4-7
{8}
н/о н/о +27.1 +13.5 43 +29 +29 жарко 1016.4 1010.8
16 15.08 ЮВ 4-7
{7}
н/о н/о +27.5 +13.4 42 +29 +29 жарко 1016.6 1011.0
18 15.08 ЮВ 3 н/о н/о +25.8 +13.8 47 +28 +28 жарко 1015.7 1010.1 +16.7 +27.9
19 15.08 ЮВ 3-5
{5}
н/о н/о +24.5 +13.8 51 +27 +27 жарко 1015.6 1009.9
20 15.08 ЮВ 3-4
{4}
н/о н/о +23.1 +14.5 58 +27 +27 душно 1015.6 1009.9
21 15.08 ЮВ 2-4
{5}
н/о н/о +22.2 +14.8 63 +26 +26 душно 1015.6 1009.9
23 15.08 Ю 3-5
{5}
н/о н/о +22.1 +14.3 61 +25 +25 комфорт 1015.6 1009.9
22 15.08 ЮВ 2-3
{3}
н/о н/о +22.7 +14.4 59 +26 +26 жарко 1015.7 1010.0
00 16.08 ЮЗ 2 н/о н/о +21.7 +14.6 64 +25 +25 комфорт 1015.6 1009.9
01 16.08 ЮЗ 3-4
{4}
н/о н/о +21.6 +14.9 66 +25 +25 комфорт 1015.8 1010.1
02 16.08 ЮЗ 3-4
{5}
н/о н/о +20.9 +15.1 69 +24 +24 комфорт 1015.9 1010.2
03 16.08 З 2-3
{5}
н/о н/о +20.6 +15.7 73 +24 +24 комфорт 1016.1 1010.4
05 16.08 З 5-8
{8}
н/о н/о +19.6 +16.4 82 +22 +22 комфорт 1017.5 1011.7
04 16.08 З 3-4
{5}
н/о н/о +19.9 +16.4 80 +23 +23 комфорт 1016.6 1010.9
06 16.08 СЗ 3 н/о н/о +19.5 +16.6 83 +22 +22 комфорт 1018.1 1012.3 +19.4 +25.8
07 16.08 СЗ 2-3
{5}
н/о н/о +19.3 +17.1 87 +22 +22 комфорт 1018.9 1013.1
08 16.08 З 3-4
{4}
н/о н/о +18.7 +17.2 91 +20 +20 тепло 1019.8 1014.0
09 16.08 З 3 н/о н/о +18.3 +17.2 93 +19 +19 по сезону 1020.5 1014.7 11
11 16.08 З 1-3
{3}
н/о н/о +19.0 +17.2 89 +22 +22 комфорт 1020.8 1015.0
10 16.08 штиль 0-1
{4}
н/о н/о +18.5 +17.1 92 +19 +19 холодно 1020.5 1014.7
12 16.08 СЗ 3-4
{6}
н/о н/о +20.5 +17.5 83 +24 +24 комфорт 1021.0 1015.2 4
13 16.08 СЗ 3-5
{5}
н/о н/о +21.4 +16.9 76 +25 +25 комфорт 1021.1 1015.4
14 16.08 СЗ 1-3
{4}
н/о н/о +21.5 +17.2 77 +26 +26 душно 1021.0 1015.3
15 16.08 З 2-4
{5}
н/о н/о +22.7 +16.3 67 +27 +27 душно 1021.0 1015.3
17 16.08 СВ 3-5
{5}
н/о н/о +22.2 +16.4 70 +26 +26 душно 1020.9 1015.2
16 16.08 С 3-4
{5}
н/о н/о +22.2 +15.7 67 +26 +26 душно 1020.9 1015.2
18 16.08 С 2 н/о н/о +20.5 +15.5 73 +24 +24 комфорт 1021.4 1015.6 +18.1 +23.3
19 16.08 СВ 1-1
{1}
н/о н/о +19.9 +16.2 79 +23 +23 комфорт 1021.9 1016.1
20 16.08 Ю 1-2
{2}
н/о н/о +19.8 +16.0 79 +23 +23 комфорт 1022.0 1016.2
21 16.08 В 1-1
{2}
н/о н/о +17.7 +15.6 88 +19 +19 по сезону 1021.8 1016.0
23 16.08 Ю 1-1
{1}
н/о н/о +17.4 +15.8 90 +18 +18 тепло 1021.7 1015.9
22 16.08 ЮВ 1-2
{3}
н/о н/о +17.0 +15.4 90 +18 +18 тепло 1021.7 1015.9
00 17.08 В 1 н/о н/о +16.1 +15.1 94 +17 +17 по сезону 1021.4 1015.6
01 17.08 ЮВ 1-2
{2}
н/о н/о +16.4 +15.6 95 +17 +17 тепло 1021.1 1015.3
02 17.08 В 1-2
{2}
н/о н/о +15.6 +14.7 94 +16 +16 по сезону 1021.2 1015.3
03 17.08 ЮВ 2-2
{2}
н/о н/о +15.1 +14.6 97 +15 +15 по сезону 1020.5 1014.6
05 17.08 В 1-2
{2}
н/о н/о +15.1 +14.7 97 +16 +16 тепло 1020.6 1014.7
04 17.08 В 1-1
{2}
н/о н/о +14.5 +13.7 95 +15 +15 по сезону 1020.9 1015.0
06 17.08 ЮВ 3 н/о н/о +16.8 +15.8 94 +17 +17 тепло 1020.7 1014.9 +13.7 +20.5
07 17.08 ЮВ 2-4
{4}
н/о н/о +18.9 +16.9 88 +21 +21 комфорт 1020.5 1014.7
08 17.08 ЮВ 4-6
{6}
н/о н/о +20.9 +17.0 78 +25 +25 комфорт 1020.1 1014.4
09 17.08 ЮВ 5 н/о н/о +21.9 +16.4 71 +26 +26 душно 1019.9 1014.2
11 17.08 ЮВ 4-7
{8}
н/о н/о +24.8 +16.6 60 +28 +28 жарко 1018.4 1012.7
10 17.08 ЮВ 5-7
{8}
н/о н/о +22.9 +15.5 63 +27 +27 душно 1019.1 1013.4
12 17.08 ЮВ 4-7
{8}
н/о н/о +25.3 +16.4 58 +29 +29 душно 1017.6 1012.0
13 17.08 ЮВ 5-9
{9}
н/о н/о +25.3 +15.4 54 +28 +28 жарко 1017.4 1011.8
14 17.08 ЮВ 4-7
{8}
н/о н/о +25.2 +15.5 55 +28 +28 жарко 1016.6 1011.0
15 17.08 ЮВ 4-6
{9}
н/о н/о +25.6 +15.5 54 +29 +29 душно 1016.0 1010.4
17 17.08 ЮВ 4-5
{6}
н/о н/о +24.9 +16.4 59 +28 +28 жарко 1014.9 1009.3
16 17.08 ЮВ 4-6
{7}
н/о н/о +25.2 +15.9 56 +28 +28 жарко 1015.3 1009.7
18 17.08 ЮВ 4 н/о н/о +24.3 +16.3 61 +28 +28 душно 1014.7 1009.1 +16.6 +25.8
19 17.08 Ю 2-4
{5}
н/о н/о +23.5 +17.1 67 +27 +27 душно 1015.4 1009.7
20 17.08 В 2-2
{5}
н/о н/о +21.4 +18.6 84 +26 +26 душно 1014.8 1009.1
21 17.08 ЮЗ 1-2
{5}
н/о н/о +21.7 +18.8 84 +27 +27 душно 1014.7 1009.0 0.1
23 17.08 З 4-6
{6}
н/о н/о +21.2 +17.4 79 +25 +25 комфорт 1015.3 1009.6
22 17.08 ЮЗ 2-2
{3}
н/о н/о +21.8 +18.0 79 +26 +26 душно 1015.0 1009.3
00 18.08 З 3 н/о н/о +20.0 +17.3 84 +23 +23 комфорт 1015.3 1009.6 0.1
01 18.08 З 2-2
{4}
н/о н/о +19.4 +16.6 84 +22 +22 комфорт 1015.4 1009.7
02 18.08 ЮЗ 2-2
{2}
н/о н/о +19.8 +17.1 84 +23 +23 комфорт 1015.5 1009.8
03 18.08 Ю 1-2
{4}
н/о н/о +19.4 +16.9 85 +22 +22 комфорт 1015.0 1009.3
05 18.08 Ю 1-2
{2}
н/о н/о +19.2 +17.0 87 +22 +22 комфорт 1015.4 1009.7
04 18.08 Ю 1-2
{2}
н/о н/о +18.8 +16.9 89 +21 +21 комфорт 1015.2 1009.4

 

Местоположение метеостанции Berlin (Германия): широта 52.47 долгота 13.40 высота над уровнем моря 50 м.

В архиве по умолчанию представлена погода в Berlin за последнюю неделю. Архивные данные за месяц целиком и за предыдущие месяцы, начиная с января 2011 года, Вы можете получить, выбрав интересующий диапазон дат из раскрывающегося списка и нажав кнопку "Ввод!".

Внимание! Время в таблицах - всемирное. Для получения местного времени необходимо прибавить поправку, которая в Berlin равна 1 ч.

Смотрите также архив погоды в соседних городах и на ближайших метеорологических станциях:

Погода в Berlin-Dahlem (Германия) (7 км)
Погода в Berlin-Tegel (Германия) (12 км)
Погода в Berlin-Schonefeld (Германия) (13 км)
Погода в Potsdam (Германия) (25 км)
Погода в Baruth (Германия) (42 км)
Погода в Lindenberg (Германия) (56 км)
Погода в Neuruppin (Германия) (62 км)
Погода в Angermuende (Германия) (74 км)
Погода в Wiesenburg (Германия) (74 км)
Погода в Manschnow (Германия) (78 км)

Пояснения к столбцам:

Ветер - указаны скорость ветра в м/с - средняя за 10 мин, порывы в срок и между сроками (в фигурных скобках) и направление, откуда дует ветер: С - северный, СВ - северо-восточный, В - восточный, ЮВ - юго-восточный, Ю - южный, ЮЗ - юго-западный, З - западный, СЗ - северо-западный.
Видимость - горизонтальная дальность видимости в метрах или километрах. При видимости от 1 до 10 км при отсутствии осадков обычно наблюдается дымка, при ухудшении видимости до 1 км и менее - туман. В сухую погоду видимость может ухудшаться дымом, пылью или мглою.
Явления - указаны атмосферные явления, наблюдавшиеся в срок или в последний час перед сроком; фигурными скобками обозначены явления, наблюдавшиеся между сроками (за 1-3 часа до срока); квадратными скобками обозначены град или гололедные отложения с указанием их диаметра в мм.
Облачность - указаны через наклонную черту общая и нижняя облачность в баллах и высота нижней границы облаков в метрах; квадратными скобками обозначены формы облаков: Ci - перистые, Cs - перисто-слоистые, Cc - перисто-кучевые, Ac - высококучевые, As - высокослоистые, Sc - слоисто-кучевые, Ns - слоисто-дождевые, Cu - кучевые, Cb - кучево-дождевые. Подробнее классификацию облаков см. в Атласе облаков (PDF).
T - Температура воздуха - температура, измеренная на высоте 2 м над землей.
Td - Температура точки росы - температура, при понижении до которой содержащийся в воздухе водяной пар достигнет насыщения.
f - Относительная влажность воздуха - влажноcть воздуха, измеренная на высоте 2 м над землей.
Te - Эффективная температура - температура, которую ощущает одетый по сезону человек в тени. Характеристика душности погоды. При расчете учитывается влияние влажности воздуха и скорости ветра на теплоощущения человека.
Tes - Эффективная температура на солнце - температура, которую ощущает человек, с поправкой на солнечный нагрев. Характеристика знойности погоды. Зависит от высоты солнца над горизонтом, облачности и скорости ветра. Ночью, в пасмурную погоду, а также при ветре 12 м/с и более поправка равна нулю.
P - Атмосферное давление - приведенное к уровню моря атмосферное давление.
Po - Атмосферное давление - измеренное на уровне метеостанции атмосферное давление.
Tmin - Минимальная температура - минимум температуры воздуха на высоте 2 м над землей.
Tmax - Максимальная температура - максимум температуры воздуха на высоте 2 м над землей.
R - Количество осадков - Количество выпавших осадков за период времени, мм. При наведении курсора мыши на число - период времени, за который выпало указанное количество осадков.
R24 - Количество осадков - Количество выпавших осадков за 24 часа, мм.
S - Снежный покров - Высота снежного покрова, см. При наведении курсора мыши на число - состояние снежного покрова и степень покрытия местности в баллах.